CW5019 Weather Reports


time (UTC)temp
C
wind
direction
speed
KPH
gust
KPH
rain 1hr
cm
rain 24hr
cm
rain mn
cm
humidity
%
barometer
mb
20260506105818 23 350 0.0 0.0 0.00 0.00 0.00 93 1008.0
20260506105315 23 350 0.0 0.0 0.00 0.00 0.00 93 1007.8
20260506104812 23 337 0.0 0.0 0.00 0.00 0.00 93 1007.6
20260506104310 23 301 0.0 0.0 0.00 0.00 0.00 93 1007.6
20260506103807 23 350 0.0 0.0 0.00 0.00 0.00 93 1007.5
20260506103304 23 347 0.0 1.6 0.00 0.00 0.00 93 1007.4
20260506102801 23 351 0.0 0.0 0.00 0.00 0.00 93 1007.5
20260506102259 23 351 0.0 0.0 0.00 0.00 0.00 93 1007.5
20260506101757 23 333 0.0 1.6 0.00 0.00 0.00 92 1007.6
20260506101253 23 338 1.6 3.2 0.00 0.00 0.00 92 1007.4
20260506100751 23 352 0.0 0.0 0.00 0.00 0.00 92 1007.5
20260506100249 23 5 0.0 0.0 0.00 0.00 0.00 92 1007.5
20260506095747 23 1 0.0 1.6 0.00 0.00 0.00 92 1007.5
20260506095244 23 347 0.0 0.0 0.00 0.00 0.00 92 1007.3
20260506094740 24 5 0.0 1.6 0.00 0.00 0.00 92 1007.2
20260506094239 24 353 0.0 0.0 0.00 0.00 0.00 92 1007.2
20260506093737 24 356 0.0 0.0 0.00 0.00 0.00 92 1007.1
20260506093234 24 4 0.0 0.0 0.00 0.00 0.00 92 1007.0
20260506092731 24 337 3.2 6.4 0.00 0.00 0.00 92 1007.0
20260506092229 24 351 0.0 1.6 0.00 0.00 0.00 92 1007.0
20260506091726 24 16 1.6 1.6 0.00 0.00 0.00 92 1007.1
20260506091224 24 354 0.0 0.0 0.00 0.00 0.00 92 1006.9
20260506090721 24 4 0.0 0.0 0.00 0.00 0.00 92 1007.2
20260506090218 23 347 0.0 0.0 0.00 0.00 0.00 92 1007.1
20260506085715 23 8 0.0 0.0 0.00 0.00 0.00 92 1007.0
20260506085211 23 351 0.0 1.6 0.00 0.00 0.00 93 1007.1
20260506084708 23 354 0.0 0.0 0.00 0.00 0.00 93 1007.0
20260506084204 23 8 1.6 1.6 0.00 0.00 0.00 92 1006.9
20260506083701 23 13 0.0 0.0 0.00 0.00 0.00 92 1007.0
20260506083159 23 342 0.0 0.0 0.00 0.00 0.00 92 1007.1
20260506082656 24 28 0.0 0.0 0.00 0.00 0.00 92 1007.1
20260506082150 24 9 0.0 1.6 0.00 0.00 0.00 92 1007.2
20260506081649 24 337 0.0 0.0 0.00 0.00 0.00 92 1007.3
20260506081146 24 5 1.6 3.2 0.00 0.00 0.00 92 1007.1
20260506080644 24 352 0.0 0.0 0.00 0.00 0.00 92 1007.4
20260506080140 24 9 0.0 0.0 0.00 0.00 0.00 92 1007.3
20260506073124 24 5 0.0 0.0 0.00 0.00 0.00 91 1007.7
20260506072620 24 0 0.0 0.0 0.00 0.00 0.00 91 1007.7
20260506072119 24 130 1.6 4.8 0.00 0.00 0.00 91 1007.7
20260506071616 24 14 1.6 3.2 0.00 0.00 0.00 91 1007.9
20260506071114 24 359 1.6 3.2 0.00 0.00 0.00 91 1008.0
20260506070610 24 3 0.0 0.0 0.00 0.00 0.00 91 1008.0
20260506070108 24 355 0.0 0.0 0.00 0.00 0.00 91 1007.9
20260506062045 24 351 0.0 0.0 0.00 0.00 0.00 91 1008.1
20260506061540 24 9 1.6 1.6 0.00 0.00 0.00 91 1008.3
20260506061038 24 339 0.0 1.6 0.00 0.00 0.00 91 1008.1
20260506060537 24 347 0.0 0.0 0.00 0.00 0.00 90 1008.2
20260506051005 25 10 0.0 1.6 0.00 0.00 0.00 89 1007.9
20260506050503 25 110 1.6 3.2 0.00 0.00 0.00 89 1008.0
20260506044953 25 60 1.6 3.2 0.00 0.00 0.00 88 1008.0
20260506044452 25 100 3.2 3.2 0.00 0.00 0.00 88 1008.1
20260506043948 25 354 0.0 0.0 0.00 0.00 0.00 88 1007.9
20260506043445 25 358 0.0 0.0 0.00 0.00 0.00 88 1008.2
20260506042943 25 357 1.6 3.2 0.00 0.00 0.00 88 1008.0
20260506042442 25 20 1.6 1.6 0.00 0.00 0.00 87 1008.1
20260506041940 25 6 1.6 1.6 0.00 0.00 0.00 87 1008.2
20260506041438 25 2 0.0 0.0 0.00 0.00 0.00 87 1008.2
20260506040935 25 355 0.0 1.6 0.00 0.00 0.00 87 1008.1
20260506040432 25 334 0.0 0.0 0.00 0.00 0.00 86 1008.0
20260506035928 25 354 0.0 0.0 0.00 0.00 0.00 87 1007.9
20260506035426 25 353 0.0 1.6 0.00 0.00 0.00 87 1007.8
20260506034922 25 0 0.0 1.6 0.00 0.00 0.00 87 1007.8
20260506034420 25 345 0.0 0.0 0.00 0.00 0.00 87 1007.6
20260506033916 25 356 0.0 0.0 0.00 0.00 0.00 87 1007.9
20260506033414 25 359 0.0 1.6 0.00 0.00 0.00 87 1007.8
20260506032910 25 339 1.6 3.2 0.00 0.00 0.00 86 1007.6
20260506032407 25 4 0.0 1.6 0.00 0.00 0.00 86 1007.8
20260506031904 25 1 0.0 1.6 0.00 0.00 0.00 86 1007.7
20260506031401 25 6 1.6 1.6 0.00 0.00 0.00 86 1007.8
20260506030859 25 6 0.0 0.0 0.00 0.00 0.00 86 1007.6
20260506030357 25 12 1.6 1.6 0.00 0.00 0.00 85 1007.6
20260506025853 25 348 0.0 0.0 0.00 0.00 0.00 85 1007.6
20260506025350 25 135 0.0 0.0 0.00 0.00 0.00 85 1007.4
20260506024847 25 332 1.6 1.6 0.00 0.00 0.00 85 1007.4
20260506024344 25 335 0.0 0.0 0.00 0.00 0.00 85 1007.2
20260506023840 25 334 0.0 0.0 0.00 0.00 0.00 85 1007.1
20260506023337 25 6 1.6 1.6 0.00 0.00 0.00 85 1007.1
20260506022834 25 4 0.0 0.0 0.00 0.00 0.00 84 1007.2
20260506022331 25 133 0.0 0.0 0.00 0.00 0.00 84 1006.8
20260506021829 25 145 3.2 3.2 0.00 0.00 0.00 84 1006.8
20260506021326 25 301 0.0 0.0 0.00 0.00 0.00 84 1006.5
20260506020822 25 0 0.0 1.6 0.00 0.00 0.00 84 1006.8
20260506020320 25 50 0.0 1.6 0.00 0.00 0.00 84 1006.6
20260506015818 26 334 0.0 1.6 0.00 0.00 0.00 84 1006.6
20260506015315 26 6 0.0 0.0 0.00 0.00 0.00 83 1006.5
20260506014812 26 143 3.2 4.8 0.00 0.00 0.00 83 1006.4
20260506014309 26 351 0.0 1.6 0.00 0.00 0.00 83 1006.2
20260506013806 26 15 0.0 0.0 0.00 0.00 0.00 84 1006.3
20260506013303 26 326 0.0 0.0 0.00 0.00 0.00 83 1006.1
20260506012759 26 328 0.0 0.0 0.00 0.00 0.00 83 1006.3
20260506012256 26 340 1.6 1.6 0.00 0.00 0.00 83 1006.1
20260506011754 26 1 0.0 0.0 0.00 0.00 0.00 83 1005.9
20260506011249 26 341 0.0 1.6 0.00 0.00 0.00 83 1005.9
20260506010748 26 20 1.6 1.6 0.00 0.00 0.00 83 1006.0
20260506010245 26 49 1.6 1.6 0.00 0.00 0.00 83 1005.8
20260506005742 26 58 0.0 1.6 0.00 0.00 0.00 82 1005.8
20260506005239 26 3 0.0 0.0 0.00 0.00 0.00 82 1005.5
20260506004735 26 14 3.2 3.2 0.00 0.00 0.00 82 1005.5
20260506004233 26 347 0.0 1.6 0.00 0.00 0.00 82 1005.7
20260506003728 26 330 0.0 0.0 0.00 0.00 0.00 81 1005.7
20260506003225 26 38 0.0 0.0 0.00 0.00 0.00 81 1005.6
20260506002721 26 10 0.0 0.0 0.00 0.00 0.00 81 1005.7
20260506002217 26 356 0.0 1.6 0.00 0.00 0.00 81 1005.5
20260506001713 26 359 0.0 1.6 0.00 0.00 0.00 80 1005.6
20260506001211 26 70 0.0 1.6 0.00 0.00 0.00 80 1005.7
20260506000708 27 341 0.0 1.6 0.00 0.00 0.00 80 1005.6
20260506000206 27 177 4.8 6.4 0.00 0.00 0.00 79 1005.6
20260505235703 27 40 0.0 0.0 0.00 0.00 0.00 79 1005.3
20260505235200 27 64 3.2 4.8 0.00 0.00 0.00 79 1005.5
20260505234657 27 148 4.8 4.8 0.00 0.00 0.00 79 1005.6
20260505234154 27 6 1.6 1.6 0.00 0.00 0.00 79 1005.6
20260505233650 27 18 0.0 0.0 0.00 0.00 0.00 79 1005.7
20260505233148 27 143 3.2 4.8 0.00 0.00 0.00 78 1005.5
20260505232646 27 5 0.0 0.0 0.00 0.00 0.00 78 1005.3
20260505232143 27 159 4.8 4.8 0.00 0.00 0.00 79 1005.5
20260505231639 27 33 1.6 1.6 0.00 0.00 0.00 79 1005.5
20260505231139 27 345 0.0 1.6 0.00 0.00 0.00 78 1005.7
20260505230636 27 2 4.8 9.7 0.00 0.00 0.00 78 1005.6
20260505230132 27 11 0.0 0.0 0.00 0.00 0.00 79 1005.6
20260505225629 27 1 0.0 1.6 0.00 0.00 0.00 79 1005.6
20260505225125 27 7 0.0 0.0 0.00 0.00 0.00 79 1005.5
20260505224622 27 140 1.6 3.2 0.00 0.00 0.00 78 1005.5
20260505224119 27 353 1.6 1.6 0.00 0.00 0.00 78 1005.6
20260505223616 27 345 3.2 4.8 0.00 0.00 0.00 79 1005.5
20260505223112 28 5 0.0 0.0 0.00 0.00 0.00 79 1005.2
20260505222609 27 334 0.0 3.2 0.00 0.00 0.00 78 1005.3
20260505222105 28 342 3.2 4.8 0.00 0.00 0.00 78 1005.5
20260505221602 28 137 3.2 6.4 0.00 0.00 0.00 77 1005.4
20260505221058 28 326 3.2 3.2 0.00 0.00 0.00 78 1005.5
20260505220556 28 39 4.8 6.4 0.00 0.00 0.00 78 1005.5
20260505220054 28 12 3.2 3.2 0.00 0.00 0.00 78 1005.6
20260505215552 28 354 1.6 3.2 0.00 0.00 0.00 78 1005.7
20260505215049 28 43 1.6 1.6 0.00 0.00 0.00 79 1005.9
20260505214547 28 21 3.2 4.8 0.00 0.00 0.00 78 1005.8
20260505214044 28 326 0.0 1.6 0.00 0.00 0.00 79 1005.9
20260505213542 28 148 3.2 3.2 0.00 0.00 0.00 78 1005.9
20260505213037 28 345 3.2 3.2 0.00 0.00 0.00 78 1005.9
20260505212534 28 349 1.6 3.2 0.00 0.00 0.00 77 1005.9
20260505212032 28 7 0.0 0.0 0.00 0.00 0.00 75 1006.2
20260505211529 28 347 0.0 0.0 0.00 0.00 0.00 76 1006.3
20260505211025 28 344 1.6 3.2 0.00 0.00 0.00 77 1006.4
20260505210522 28 355 0.0 0.0 0.00 0.00 0.00 77 1006.3
20260505210019 28 28 0.0 1.6 0.00 0.00 0.00 77 1006.4
20260505205517 28 6 0.0 1.6 0.00 0.00 0.00 77 1006.4
20260505205014 28 65 1.6 1.6 0.00 0.00 0.00 77 1006.4
20260505204512 28 27 0.0 1.6 0.00 0.00 0.00 75 1006.6
20260505204009 28 8 0.0 1.6 0.00 0.00 0.00 76 1006.6
20260505203505 28 40 3.2 4.8 0.00 0.00 0.00 76 1006.8
20260505203001 28 350 1.6 3.2 0.00 0.00 0.00 75 1006.9
20260505202458 28 34 4.8 6.4 0.00 0.00 0.00 77 1006.9
20260505201954 28 345 0.0 0.0 0.00 0.00 0.00 78 1006.9
20260505201451 28 84 1.6 3.2 0.00 0.00 0.00 77 1007.1
20260505200949 28 12 0.0 0.0 0.00 0.00 0.00 77 1007.0
20260505200447 28 359 3.2 3.2 0.00 0.00 0.00 75 1007.0
20260505195942 28 114 1.6 3.2 0.00 0.00 0.00 74 1007.0
20260505195439 28 12 4.8 6.4 0.00 0.00 0.00 75 1007.1
20260505194937 28 9 1.6 1.6 0.00 0.00 0.00 75 1007.2
20260505194434 28 326 3.2 6.4 0.00 0.00 0.00 75 1007.3
20260505193934 28 352 1.6 1.6 0.00 0.00 0.00 77 1007.5
20260505193432 28 359 0.0 1.6 0.00 0.00 0.00 77 1007.5
20260505192929 28 322 1.6 3.2 0.00 0.00 0.00 77 1007.5
20260505192427 28 321 4.8 6.4 0.00 0.00 0.00 78 1007.4
20260505191925 27 31 0.0 0.0 0.00 0.00 0.00 80 1007.6
20260505191424 27 170 1.6 3.2 0.00 0.00 0.00 79 1007.5
20260505190920 27 8 0.0 0.0 0.00 0.00 0.00 80 1007.6
20260505190415 27 10 0.0 1.6 0.00 0.00 0.00 81 1007.7
20260505185910 27 357 0.0 0.0 0.00 0.00 0.00 80 1007.8
20260505185408 27 359 0.0 1.6 0.00 0.00 0.00 81 1008.1
20260505184904 27 338 1.6 3.2 0.00 0.00 0.00 80 1007.8
20260505184401 27 121 1.6 3.2 0.00 0.00 0.00 80 1007.8
20260505183858 27 348 0.0 0.0 0.00 0.00 0.00 81 1007.8
20260505183355 26 332 0.0 1.6 0.00 0.00 0.00 82 1007.9
20260505182851 26 350 4.8 4.8 0.00 0.00 0.00 83 1008.0
20260505182348 26 7 1.6 1.6 0.00 0.00 0.00 84 1007.9
20260505181845 26 340 3.2 3.2 0.00 0.00 0.00 84 1008.1
20260505181337 26 354 1.6 3.2 0.00 0.00 0.00 84 1008.1
20260505180833 26 312 3.2 4.8 0.00 0.00 0.00 84 1008.0
20260505180330 26 27 3.2 3.2 0.00 0.00 0.00 84 1008.2
20260505175826 25 10 3.2 9.7 0.00 0.00 0.00 85 1008.2
20260505175323 25 349 1.6 1.6 0.00 0.00 0.00 86 1008.2
20260505174819 25 29 1.6 3.2 0.00 0.00 0.00 86 1008.0
20260505174317 25 347 0.0 0.0 0.00 0.00 0.00 86 1008.2
20260505173813 25 28 0.0 0.0 0.00 0.00 0.00 86 1008.3
20260505173309 25 30 1.6 1.6 0.00 0.00 0.00 86 1008.4
20260505172806 25 120 3.2 3.2 0.00 0.00 0.00 85 1008.4
20260505172306 25 358 0.0 1.6 0.00 0.00 0.00 85 1008.5
20260505171759 25 331 0.0 1.6 0.00 0.00 0.00 85 1008.3
20260505171255 25 335 4.8 6.4 0.00 0.00 0.00 85 1008.4
20260505170752 25 83 1.6 3.2 0.00 0.00 0.00 86 1008.3
20260505170250 25 340 1.6 1.6 0.00 0.00 0.00 87 1008.4
20260505165749 25 347 1.6 1.6 0.00 0.00 0.00 88 1008.5
20260505165246 25 355 1.6 1.6 0.00 0.00 0.00 88 1008.4
20260505164741 25 5 0.0 0.0 0.00 0.00 0.00 88 1008.7
20260505164239 25 342 0.0 0.0 0.00 0.00 0.00 87 1008.6
20260505163737 25 342 0.0 1.6 0.00 0.00 0.00 87 1008.6
20260505163235 25 338 1.6 1.6 0.00 0.00 0.00 87 1008.6
20260505162732 24 334 1.6 3.2 0.00 0.00 0.00 88 1008.6
20260505162229 24 65 1.6 1.6 0.00 0.00 0.00 89 1008.7
20260505161726 24 328 1.6 3.2 0.00 0.00 0.00 89 1008.7
20260505161224 23 355 0.0 1.6 0.00 0.00 0.00 90 1008.5
20260505160721 23 328 1.6 1.6 0.00 0.00 0.00 90 1008.4
20260505160218 23 9 1.6 1.6 0.00 0.00 0.00 90 1008.6
20260505153157 24 58 1.6 1.6 0.00 0.00 0.00 87 1008.4
20260505152654 24 4 1.6 3.2 0.00 0.00 0.00 87 1008.2
20260505152150 24 50 1.6 1.6 0.00 0.00 0.00 86 1008.2
20260505151645 24 327 3.2 3.2 0.00 0.00 0.00 86 1008.3
20260505151143 24 334 0.0 1.6 0.00 0.00 0.00 87 1008.2
20260505150639 24 330 1.6 3.2 0.00 0.00 0.00 87 1008.1
20260505150136 24 21 1.6 3.2 0.00 0.00 0.00 87 1008.1
20260505140605 23 56 1.6 3.2 0.00 0.00 0.00 90 1007.8
20260505125018 22 354 0.0 0.0 0.00 0.00 0.00 92 1007.9
20260505124515 22 342 0.0 0.0 0.00 0.00 0.00 92 1007.4
20260505124011 22 350 1.6 3.2 0.00 0.00 0.00 92 1007.2
20260505123508 21 70 1.6 3.2 0.00 0.00 0.00 92 1007.3
20260505123004 21 6 0.0 0.0 0.00 0.00 0.00 92 1007.4
20260505122501 21 352 0.0 0.0 0.00 0.00 0.00 93 1007.7
20260505121958 21 341 0.0 0.0 0.00 0.00 0.00 92 1007.5
20260505121455 21 301 0.0 0.0 0.00 0.00 0.00 93 1007.6
20260505120950 21 8 1.6 1.6 0.00 0.00 0.00 93 1007.5
20260505120447 21 37 3.2 3.2 0.00 0.00 0.00 92 1007.6
20260505115946 21 15 1.6 3.2 0.00 0.00 0.00 93 1007.6
20260505115443 21 316 1.6 3.2 0.00 0.00 0.00 93 1007.4
20260505114941 21 325 1.6 1.6 0.00 0.00 0.00 93 1007.2
20260505114437 21 1 0.0 1.6 0.00 0.00 0.00 93 1007.1
20260505113934 21 347 1.6 3.2 0.00 0.00 0.00 93 1007.0
20260505113430 21 356 0.0 0.0 0.00 0.00 0.00 93 1007.5
20260505112926 21 38 0.0 1.6 0.00 0.00 0.00 93 1007.6
20260505112424 21 359 1.6 1.6 0.00 0.00 0.00 93 1007.5
20260505111920 21 1 0.0 0.0 0.00 0.00 0.00 93 1007.3
20260505111414 21 349 0.0 0.0 0.00 0.00 0.00 92 1007.4
20260505110911 21 336 0.0 0.0 0.00 0.00 0.00 92 1007.3
20260505110408 21 343 1.6 3.2 0.00 0.00 0.00 92 1007.4